Location: ???
(60.6398°N, 46.9067°E)
Time: 18:37:56
(UTC+00:00)

Cosmos 921 Rocket - Pass Details

Date: 08 December 2019
Orbit: 572 x 632 km, 75.8° (Epoch: 16 January)

Event Time Altitude Azimuth Distance (km) Brightness Sun altitude
Rises 14:26:11 0° 331° (NNW) 2,805 6.6 -17.5°
Reaches altitude 10° 14:28:24 10° 334° (NNW) 1,907 5.7 -17.8°
Maximum altitude 14:32:38 69° 58° (ENE) 631 2.8 -18.3°
Enters shadow 14:35:51 17° 140° (SE) 1,516 4.8 -18.7°
